DJ8HS-13 Weather Reports


Display with metric or nautical units.
time (UTC)temp
F
wind
direction
speed
MPH
gust
MPH
rain 1hr
in
rain 24hr
in
rain mn
in
humidity
%
barometer
mb
20260506043930 56 139 0.0 2.0 0.00 0.08 0.07 88
20260506043430 56 158 0.0 0.0 0.00 0.08 0.07 88
20260506042930 56 158 0.0 1.0 0.00 0.08 0.07 88
20260506042430 56 188 0.0 2.0 0.00 0.08 0.07 88
20260506041930 56 195 0.0 0.0 0.00 0.08 0.07 88
20260506041430 56 195 0.0 3.0 0.00 0.08 0.07 88
20260506040930 56 167 0.0 2.0 0.00 0.08 0.07 88
20260506040430 56 171 0.0 1.0 0.00 0.08 0.07 88
20260506035930 56 198 0.0 1.0 0.00 0.08 0.07 88
20260506035430 56 163 0.0 3.0 0.00 0.08 0.07 88
20260506034930 56 165 0.0 3.0 0.00 0.08 0.07 87
20260506034430 56 157 0.0 5.0 0.00 0.08 0.07 87
20260506033930 56 181 3.0 5.0 0.00 0.08 0.07 87
20260506033430 56 180 0.0 0.0 0.00 0.08 0.07 87
20260506032930 56 180 0.0 0.0 0.00 0.08 0.07 87
20260506032430 56 180 0.0 0.0 0.00 0.08 0.07 87
20260506031930 56 180 0.0 0.0 0.00 0.08 0.07 87
20260506031430 56 180 0.0 1.0 0.00 0.08 0.07 87
20260506030930 56 194 0.0 1.0 0.00 0.08 0.07 87
20260506030430 56 135 0.0 0.0 0.00 0.08 0.07 87
20260506025930 56 135 0.0 3.0 0.00 0.08 0.07 87
20260506025430 57 130 0.0 0.0 0.00 0.08 0.07 86
20260506024930 57 130 0.0 1.0 0.00 0.08 0.07 86
20260506024430 57 130 0.0 0.0 0.00 0.08 0.07 86
20260506023930 57 130 0.0 0.0 0.00 0.08 0.07 86
20260506023430 57 130 0.0 0.0 0.00 0.08 0.07 86
20260506022930 57 130 0.0 0.0 0.00 0.08 0.07 86
20260506022430 57 130 0.0 0.0 0.00 0.08 0.07 86
20260506021930 57 130 0.0 0.0 0.00 0.08 0.07 86
20260506021430 57 130 0.0 0.0 0.00 0.08 0.07 86
20260506020930 57 130 0.0 0.0 0.00 0.08 0.07 86
20260506020430 57 130 0.0 0.0 0.00 0.08 0.07 86
20260506015930 57 130 0.0 0.0 0.00 0.08 0.07 86
20260506015430 57 130 0.0 0.0 0.00 0.08 0.07 86
20260506014930 57 130 0.0 0.0 0.00 0.08 0.07 86
20260506014430 57 130 0.0 0.0 0.00 0.08 0.07 86
20260506013931 57 130 0.0 0.0 0.00 0.08 0.07 86
20260506013431 57 130 0.0 0.0 0.00 0.08 0.07 86
20260506012931 57 130 0.0 0.0 0.00 0.08 0.07 86
20260506012431 57 130 0.0 0.0 0.00 0.08 0.07 85
20260506011931 57 130 0.0 0.0 0.00 0.08 0.07 85
20260506011431 57 130 0.0 0.0 0.00 0.08 0.07 85
20260506010931 57 130 0.0 0.0 0.00 0.08 0.07 85
20260506010431 57 130 0.0 0.0 0.00 0.08 0.07 85
20260506005931 57 130 0.0 0.0 0.00 0.08 0.07 85
20260506005431 58 130 0.0 0.0 0.00 0.08 0.07 86
20260506004931 58 130 0.0 0.0 0.00 0.08 0.07 86
20260506004431 58 130 0.0 0.0 0.00 0.08 0.07 86
20260506003931 58 130 0.0 0.0 0.00 0.08 0.07 86
20260506003431 58 130 0.0 0.0 0.00 0.08 0.07 86
20260506002931 58 130 0.0 0.0 0.00 0.08 0.07 87
20260506002431 58 130 0.0 0.0 0.00 0.08 0.07 87
20260506001931 59 130 0.0 0.0 0.00 0.08 0.07 87
20260506001431 59 130 0.0 2.0 0.00 0.08 0.07 87
20260506000931 59 146 0.0 4.0 0.00 0.08 0.07 87
20260506000431 59 168 0.0 0.0 0.01 0.08 0.07 87
20260505235931 59 175 0.0 4.0 0.01 0.08 0.07 87
20260505235431 59 191 3.0 3.0 0.01 0.08 0.07 87
20260505234931 59 181 1.0 4.0 0.01 0.08 0.07 87
20260505234431 59 144 0.0 4.0 0.01 0.08 0.07 87
20260505233931 59 185 2.0 5.0 0.01 0.08 0.07 87
20260505233431 59 188 0.0 4.0 0.01 0.08 0.07 87
20260505232931 59 196 1.0 3.0 0.02 0.08 0.07 87
20260505232431 59 244 2.0 3.0 0.04 0.08 0.07 87
20260505231931 59 160 0.0 1.0 0.04 0.08 0.07 86
20260505231431 59 112 0.0 4.0 0.04 0.08 0.07 86
20260505230931 59 201 2.0 2.0 0.04 0.08 0.07 86
20260505230431 59 158 0.0 2.0 0.03 0.07 0.06 86
20260505225931 59 180 0.0 5.0 0.03 0.07 0.06 86
20260505225431 60 216 0.0 2.0 0.04 0.07 0.06 86
20260505224931 60 206 0.0 3.0 0.04 0.07 0.06 85
20260505224431 60 177 0.0 3.0 0.04 0.07 0.06 85
20260505223931 60 181 0.0 4.0 0.04 0.07 0.06 85
20260505223431 60 168 0.0 2.0 0.04 0.07 0.06 85
20260505222931 60 139 0.0 4.0 0.03 0.06 0.05 84
20260505222431 60 194 1.0 4.0 0.01 0.04 0.03 84
20260505221931 60 163 1.0 2.0 0.01 0.04 0.03 84
20260505221431 60 196 0.0 0.0 0.01 0.04 0.03 84
20260505220931 60 196 0.0 0.0 0.01 0.04 0.03 84
20260505220431 60 196 0.0 0.0 0.01 0.04 0.03 84
20260505215931 60 196 0.0 0.0 0.01 0.04 0.03 83
20260505215431 60 196 0.0 2.0 0.00 0.03 0.02 83
20260505214931 61 153 0.0 0.0 0.00 0.03 0.02 83
20260505214431 61 153 0.0 0.0 0.00 0.03 0.02 83
20260505213931 60 153 0.0 1.0 0.00 0.03 0.02 83
20260505213431 60 240 0.0 0.0 0.00 0.03 0.02 82
20260505212931 61 240 0.0 0.0 0.00 0.03 0.02 82
20260505212431 61 240 0.0 0.0 0.00 0.03 0.02 82
20260505211931 61 240 0.0 0.0 0.00 0.03 0.02 82
20260505211431 61 240 0.0 0.0 0.00 0.03 0.02 82
20260505210931 61 240 0.0 0.0 0.00 0.03 0.02 82
20260505210431 61 240 0.0 0.0 0.00 0.03 0.02 82
20260505205931 61 240 0.0 0.0 0.00 0.03 0.02 82
20260505205431 61 240 0.0 0.0 0.00 0.03 0.02 82
20260505204931 61 240 0.0 0.0 0.00 0.03 0.02 82
20260505204431 61 240 0.0 0.0 0.00 0.03 0.02 82
20260505203931 61 240 0.0 0.0 0.00 0.03 0.02 82
20260505203431 61 240 0.0 0.0 0.00 0.03 0.02 82
20260505202931 61 240 0.0 0.0 0.00 0.03 0.02 81
20260505202431 61 240 0.0 0.0 0.00 0.03 0.02 81
20260505201931 61 240 0.0 0.0 0.00 0.03 0.02 81
20260505201431 61 240 0.0 0.0 0.00 0.03 0.02 81
20260505200931 61 240 0.0 0.0 0.00 0.03 0.02 81
20260505200431 61 240 0.0 0.0 0.00 0.03 0.02 81
20260505195931 61 240 0.0 0.0 0.00 0.03 0.02 81
20260505195431 61 240 0.0 0.0 0.00 0.03 0.02 81
20260505194931 61 240 0.0 0.0 0.00 0.03 0.02 80
20260505194431 61 240 0.0 0.0 0.00 0.03 0.02 80
20260505193931 61 240 0.0 0.0 0.00 0.03 0.02 80
20260505193431 61 240 0.0 0.0 0.00 0.03 0.02 80
20260505192931 61 240 0.0 0.0 0.00 0.03 0.02 80
20260505192431 61 240 0.0 0.0 0.00 0.03 0.02 80
20260505191931 61 240 0.0 0.0 0.00 0.03 0.02 80
20260505191431 62 240 0.0 0.0 0.00 0.03 0.02 79
20260505190931 62 240 0.0 0.0 0.00 0.03 0.02 79
20260505190431 62 240 0.0 0.0 0.00 0.03 0.02 78
20260505185931 62 240 0.0 0.0 0.00 0.03 0.02 78
20260505185431 62 240 0.0 0.0 0.00 0.03 0.02 78
20260505184931 62 240 0.0 0.0 0.00 0.03 0.02 78
20260505184431 62 240 0.0 0.0 0.00 0.03 0.02 78
20260505183931 62 240 0.0 0.0 0.00 0.03 0.02 77
20260505183431 62 240 0.0 0.0 0.00 0.03 0.02 77
20260505182931 63 240 0.0 0.0 0.00 0.03 0.02 77
20260505182431 63 240 0.0 0.0 0.00 0.03 0.02 77
20260505181931 63 240 0.0 0.0 0.00 0.03 0.02 76
20260505181432 63 240 0.0 0.0 0.00 0.03 0.02 76
20260505180932 63 240 0.0 0.0 0.00 0.03 0.02 76
20260505180432 63 240 0.0 0.0 0.00 0.03 0.02 76
20260505175931 63 240 0.0 0.0 0.00 0.03 0.02 75
20260505175432 63 240 0.0 0.0 0.00 0.03 0.02 75
20260505174932 63 240 0.0 0.0 0.00 0.03 0.02 75
20260505174432 63 240 0.0 0.0 0.00 0.03 0.02 75
20260505173932 63 240 0.0 0.0 0.00 0.03 0.02 74
20260505173432 64 240 0.0 0.0 0.00 0.03 0.02 74
20260505172932 64 240 0.0 0.0 0.00 0.03 0.02 74
20260505172432 64 240 0.0 0.0 0.00 0.03 0.02 73
20260505171932 64 240 0.0 0.0 0.00 0.03 0.02 73
20260505171432 64 240 0.0 0.0 0.00 0.03 0.02 73
20260505170932 64 240 0.0 0.0 0.01 0.03 0.02 73
20260505170432 64 240 0.0 0.0 0.01 0.03 0.02 73
20260505165932 64 240 0.0 2.0 0.01 0.03 0.02 73
20260505165432 64 284 0.0 0.0 0.01 0.03 0.02 74
20260505164932 64 284 0.0 0.0 0.01 0.03 0.02 74
20260505164432 64 284 0.0 1.0 0.02 0.03 0.02 74
20260505163932 64 285 0.0 0.0 0.02 0.03 0.02 73
20260505163432 64 285 0.0 1.0 0.02 0.03 0.02 73
20260505162932 65 247 0.0 0.0 0.02 0.03 0.02 73
20260505162432 65 247 0.0 0.0 0.02 0.03 0.02 73
20260505161932 65 247 0.0 0.0 0.02 0.03 0.02 72
20260505161432 65 247 0.0 1.0 0.02 0.03 0.02 72
20260505160932 65 253 0.0 0.0 0.01 0.02 0.01 72
20260505160432 65 271 0.0 1.0 0.01 0.02 0.01 72
20260505152932 66 213 0.0 3.0 0.01 0.01 0.00 69
20260505152432 66 244 3.0 4.0 0.01 0.01 0.00 69
20260505151932 66 230 2.0 5.0 0.01 0.01 0.01 68
20260505151432 67 236 3.0 4.0 0.01 0.01 0.01 67
20260505150932 67 257 0.0 4.0 0.01 0.01 0.01 67
20260505150432 67 205 0.0 4.0 0.01 0.01 0.01 67
20260505140432 69 278 0.0 4.0 0.00 0.00 0.00 60
20260505124932 74 243 0.0 5.0 0.00 0.00 0.00 47
20260505124432 74 265 1.0 6.0 0.00 0.00 0.00 46
20260505123932 75 210 4.0 6.0 0.00 0.00 0.00 45
20260505123432 75 288 4.0 5.0 0.00 0.00 0.00 44
20260505122932 75 210 0.0 6.0 0.00 0.00 0.00 43
20260505122432 75 203 0.0 3.0 0.00 0.00 0.00 41
20260505121932 76 158 0.0 4.0 0.00 0.00 0.00 41
20260505121432 76 265 2.0 4.0 0.00 0.00 0.00 41
20260505120932 76 223 2.0 4.0 0.00 0.00 0.00 40
20260505120432 76 164 1.0 3.0 0.00 0.00 0.00 39
20260505115932 76 333 2.0 3.0 0.00 0.00 0.00 40
20260505115432 76 295 0.0 4.0 0.00 0.00 0.00 40
20260505114932 76 302 1.0 5.0 0.00 0.00 0.00 40
20260505114432 77 188 2.0 4.0 0.00 0.00 0.00 41
20260505113932 76 241 0.0 1.0 0.00 0.00 0.00 41
20260505113432 76 164 0.0 3.0 0.00 0.00 0.00 40
20260505112932 76 154 0.0 0.0 0.00 0.00 0.00 40
20260505112432 76 154 0.0 1.0 0.00 0.00 0.00 41
20260505111932 76 146 0.0 2.0 0.00 0.00 0.00 41
20260505111432 76 56 0.0 2.0 0.00 0.00 0.00 42
20260505110932 75 53 0.0 0.0 0.00 0.00 0.00 42
20260505110432 75 53 0.0 3.0 0.00 0.00 0.00 41
20260505101932 74 108 0.0 3.0 0.00 0.00 0.00 44
20260505101432 74 40 0.0 2.0 0.00 0.00 0.00 43
20260505100932 74 109 0.0 2.0 0.00 0.00 0.00 43
20260505100432 74 81 0.0 1.0 0.00 0.00 0.00 46
20260505095932 73 254 0.0 1.0 0.00 0.00 0.00 46
20260505095432 73 2 1.0 3.0 0.00 0.00 0.00 47
20260505094932 73 181 2.0 2.0 0.00 0.00 0.00 47
20260505094432 73 160 2.0 3.0 0.00 0.00 0.00 48
20260505093932 73 70 0.0 1.0 0.00 0.00 0.00 47
20260505093432 73 82 0.0 0.0 0.00 0.00 0.00 47
20260505092932 73 82 0.0 0.0 0.00 0.00 0.00 47
20260505092432 73 82 0.0 0.0 0.00 0.00 0.00 47
20260505091932 73 82 0.0 1.0 0.00 0.00 0.00 46
20260505091432 73 125 0.0 0.0 0.00 0.00 0.00 47
20260505090933 73 125 0.0 0.0 0.00 0.00 0.00 47
20260505090432 73 125 0.0 2.0 0.00 0.00 0.00 48
20260505085933 73 171 0.0 2.0 0.00 0.00 0.00 49
20260505085433 72 191 0.0 1.0 0.00 0.00 0.00 49
20260505084933 72 78 0.0 0.0 0.00 0.00 0.00 49
20260505084433 72 78 0.0 0.0 0.00 0.00 0.00 50
20260505083933 71 78 0.0 0.0 0.00 0.00 0.00 50
20260505083433 71 78 0.0 0.0 0.00 0.00 0.00 50
20260505082933 71 78 0.0 3.0 0.00 0.00 0.00 52
20260505082433 71 19 0.0 1.0 0.00 0.00 0.00 53
20260505081933 71 18 0.0 1.0 0.00 0.00 0.00 53
20260505081433 70 87 0.0 1.0 0.00 0.00 0.00 53
20260505080933 70 87 0.0 4.0 0.00 0.00 0.00 54
20260505080433 70 106 4.0 4.0 0.00 0.00 0.00 54
20260505075933 70 12 0.0 3.0 0.00 0.00 0.00 55
20260505075433 69 347 2.0 3.0 0.00 0.00 0.00 55
20260505074933 69 57 0.0 5.0 0.00 0.00 0.00 56
20260505074433 69 85 3.0 3.0 0.00 0.00 0.00 58
20260505073933 68 237 0.0 3.0 0.00 0.00 0.00 60
20260505073433 67 23 2.0 2.0 0.00 0.00 0.00 61
20260505072933 66 14 0.0 2.0 0.00 0.00 0.00 63
20260505072433 65 22 0.0 1.0 0.00 0.00 0.00 65
20260505071933 64 161 1.0 2.0 0.00 0.00 0.00 66
20260505071433 63 324 0.0 0.0 0.00 0.00 0.00 67
20260505070933 63 324 0.0 1.0 0.00 0.00 0.00 67
20260505070433 63 23 0.0 1.0 0.00 0.00 0.00 68
20260505065933 63 60 0.0 3.0 0.00 0.00 0.00 69
20260505065433 63 18 0.0 1.0 0.00 0.00 0.00 69
20260505064933 62 331 1.0 1.0 0.00 0.00 0.00 69
20260505064433 62 268 0.0 0.0 0.00 0.00 0.00 69
20260505063933 62 268 0.0 1.0 0.00 0.00 0.00 69
20260505063433 62 12 1.0 2.0 0.00 0.00 0.00 70
20260505062933 62 33 0.0 0.0 0.00 0.00 0.00 70
20260505062433 62 33 0.0 0.0 0.00 0.00 0.00 71
20260505061933 61 33 0.0 3.0 0.00 0.00 0.00 71
20260505061433 61 2 0.0 3.0 0.00 0.00 0.00 72
20260505060933 61 9 0.0 1.0 0.00 0.00 0.00 72
20260505060433 60 14 0.0 0.0 0.00 0.00 0.00 73
20260505055933 60 14 0.0 1.0 0.00 0.00 0.00 73
20260505055433 60 40 0.0 0.0 0.00 0.00 0.00 74
20260505054933 60 40 0.0 0.0 0.00 0.00 0.00 74
20260505054433 60 40 0.0 0.0 0.00 0.00 0.00 75
20260505053933 60 40 0.0 0.0 0.00 0.00 0.00 75
20260505053433 60 40 0.0 0.0 0.00 0.00 0.00 75
20260505052933 60 40 0.0 0.0 0.00 0.00 0.00 75
20260505052433 60 40 0.0 0.0 0.00 0.00 0.00 75
20260505051933 60 40 0.0 0.0 0.00 0.00 0.00 76
20260505051433 60 40 0.0 0.0 0.00 0.00 0.00 76
20260505050933 59 40 0.0 0.0 0.00 0.00 0.00 76
20260505050433 59 40 0.0 0.0 0.00 0.00 0.00 76